Location: *
(49.6619°S, 177.4603°W)
Time: 06:13:02
(UTC+00:00)

Nimbus 7 Rocket - Pass Details

Date: 31 January 2023
Orbit: 921 x 965 km, 99.4° (Epoch: 01 April)

Event Time Altitude Azimuth Distance (km) Brightness Sun altitude
Exits shadow 10:57:10 42° 15° (NNE) 1,310 4.7 -21.4°
Maximum altitude 10:59:20 88° 291° (WNW) 943 4.3 -21.5°
Drops below altitude 10° 11:05:20 10° 196° (SSW) 2,671 8.0 -21.7°
Sets 11:07:48 0° 195° (SSW) 3,626 9.0 -21.8°
